Welkom op de weersite van Veghel e.o.

Het is weer maart en dat betekend weer Lente.

Echter na de warme februari.

Nu weer onstuimig en regenachtig.

Het gezegde "maart roert zijn staart" is weer actueel.




Webcam Veghel  Webcam Veghel


Onweer radar Meer informatie blitzortung!


Regen radar Meer informatie rain snow radar


U vindt ons ook hier:

Het Weer Aktueel

European Weather Network

Weather Underground

Benelux Weer Netwerk

AWEKAS


Het weer levert geen direct gevaar op.    Er zijn geen waarschuwingen afgegeven.

Weather Underground Historische gegevens

Dagelijkse Samenvatting april 21, 2019 Eenheden:  Metrisch    Engels   Beide
« Vorige Dag
Volgende Dag »
Dagelijkse Wekelijkse Maandelijkse Jaarlijkse Aangepaste
  Huidig: Hoog: Laag: Gemiddeld:
Temperatuur: -6.9 °C -17.8 °C -13.4 °C -8.3 °C
Dauwpunt: -15.7 °C -17.8 °C -16.7 °C -15.8 °C
Vochtigheid: 35 % Humidity % 24 % 43 %
Wind snelheid: 7.7 km/h 0 km/h 5.1 km/h 10.3 km/h
Windvlaag: 10.3 km/h 0 km/h - -
Wind:NE - - ENE
Luchtdruk: 34361.1 hPa 0 hPa 34361.1 hPa -
Neerslag: 0 mm      
Historical Graphs
 
 
Tabel voor april 21, 2019
Tijd Temperatuur Dauwpunt Luchtdruk Wind Wind snelheid Windvlaag Vochtigheid Regenval per uur
-17.8 °C -17.8 °C 0 hPa Calm     Humidity % 0 mm
00:00 -9.2 °C -15.8 °C 34740.4 hPa ENE 10.3 km/h 10.3 km/h 45 % 0 mm
00:15 -9.4 °C -16 °C 34740.4 hPa ENE 10.3 km/h 10.3 km/h 45 % 0 mm
00:20 -9.5 °C -16.1 °C 34740.4 hPa ENE 10.3 km/h 10.3 km/h 45 % 0 mm
00:25 -9.5 °C -16.1 °C 34740.4 hPa NE 10.3 km/h 10.3 km/h 45 % 0 mm
00:30 -9.6 °C -15.9 °C 34740.4 hPa NE 10.3 km/h 10.3 km/h 46 % 0 mm
00:35 -9.6 °C -15.9 °C 34740.4 hPa NE 10.3 km/h 10.3 km/h 46 % 0 mm
00:40 -9.6 °C -15.9 °C 34726.8 hPa ENE 12.9 km/h 12.9 km/h 46 % 0 mm
00:45 -9.6 °C -16.2 °C 34726.8 hPa NE 15.6 km/h 15.6 km/h 45 % 0 mm
00:50 -9.6 °C -16 °C 34726.8 hPa NE 12.9 km/h 15.6 km/h 46 % 0 mm
00:55 -9.7 °C -16.2 °C 34726.8 hPa NE 12.9 km/h 12.9 km/h 45 % 0 mm
01:00 -9.7 °C -16.3 °C 34726.8 hPa ENE 12.9 km/h 12.9 km/h 45 % 0 mm
01:05 -9.7 °C -16.3 °C 34726.8 hPa ENE 12.9 km/h 12.9 km/h 45 % 0 mm
01:10 -9.8 °C -16.3 °C 34726.8 hPa NE 10.3 km/h 10.3 km/h 45 % 0 mm
01:15 -9.9 °C -16.4 °C 34726.8 hPa ENE 10.3 km/h 10.3 km/h 45 % 0 mm
01:20 -9.9 °C -16.3 °C 34726.8 hPa ENE 10.3 km/h 12.9 km/h 46 % 0 mm
01:25 -10 °C -16.3 °C 34726.8 hPa East 12.9 km/h 20.8 km/h 46 % 0 mm
01:30 -10.1 °C -16.4 °C 34716.7 hPa NE 12.9 km/h 12.9 km/h 46 % 0 mm
01:35 -10.1 °C -16.4 °C 34716.7 hPa East 12.9 km/h 12.9 km/h 46 % 0 mm
01:40 -10.1 °C -16.4 °C 34716.7 hPa NE 12.9 km/h 12.9 km/h 46 % 0 mm
01:45 -10.1 °C -16.4 °C 34716.7 hPa NE 12.9 km/h 12.9 km/h 46 % 0 mm
01:50 -10.1 °C -16.6 °C 34716.7 hPa East 12.9 km/h 18.2 km/h 45 % 0 mm
02:00 -10.3 °C -16.6 °C 34703.1 hPa ENE 10.3 km/h 10.3 km/h 46 % 0 mm
02:05 -10.4 °C -16.6 °C 34703.1 hPa NE 10.3 km/h 12.9 km/h 47 % 0 mm
02:10 -10.4 °C -16.4 °C 34703.1 hPa NE 10.3 km/h 15.6 km/h 48 % 0 mm
02:15 -10.4 °C -16.6 °C 34703.1 hPa ENE 10.3 km/h 15.6 km/h 47 % 0 mm
02:20 -10.5 °C -16.7 °C 34703.1 hPa NE 10.3 km/h 10.3 km/h 47 % 0 mm
02:25 -10.6 °C -16.6 °C 34703.1 hPa NE 10.3 km/h 10.3 km/h 48 % 0 mm
02:30 -10.6 °C -16.6 °C 34703.1 hPa ENE 10.3 km/h 10.3 km/h 48 % 0 mm
02:35 -10.7 °C -16.6 °C 34693 hPa ENE 10.3 km/h 10.3 km/h 48 % 0 mm
02:40 -10.8 °C -16.6 °C 34693 hPa ENE 10.3 km/h 10.3 km/h 49 % 0 mm
02:45 -10.9 °C -16.7 °C 34693 hPa NNE 10.3 km/h 15.6 km/h 49 % 0 mm
02:50 -10.8 °C -16.6 °C 34693 hPa NE 10.3 km/h 10.3 km/h 49 % 0 mm
02:55 -10.8 °C -16.6 °C 34693 hPa ENE 10.3 km/h 12.9 km/h 49 % 0 mm
03:00 -10.8 °C -16.4 °C 34693 hPa NE 10.3 km/h 12.9 km/h 50 % 0 mm
03:05 -10.8 °C -16.4 °C 34682.8 hPa NE 10.3 km/h 12.9 km/h 50 % 0 mm
03:10 -10.8 °C -16.5 °C 34682.8 hPa NE 10.3 km/h 10.3 km/h 50 % 0 mm
03:15 -10.9 °C -16.6 °C 34682.8 hPa NE 7.7 km/h 10.3 km/h 50 % 0 mm
03:20 -11 °C -16.5 °C 34682.8 hPa NE 7.7 km/h 10.3 km/h 51 % 0 mm
03:25 -11.2 °C -16.4 °C 34682.8 hPa NE 7.7 km/h 10.3 km/h 52 % 0 mm
03:30 -11.3 °C -16.4 °C 34682.8 hPa NE 7.7 km/h 10.3 km/h 53 % 0 mm
03:35 -11.3 °C -16.4 °C 34682.8 hPa NNE 7.7 km/h 10.3 km/h 53 % 0 mm
03:40 -11.3 °C -16.3 °C 34669.3 hPa NNE 7.7 km/h 7.7 km/h 54 % 0 mm
03:45 -11.3 °C -16.3 °C 34669.3 hPa NNE 10.3 km/h 10.3 km/h 54 % 0 mm
03:50 -11.4 °C -16.4 °C 34669.3 hPa NE 7.7 km/h 7.7 km/h 54 % 0 mm
03:55 -11.5 °C -16.3 °C 34669.3 hPa NE 7.7 km/h 7.7 km/h 55 % 0 mm
04:00 -11.6 °C -16.4 °C 34669.3 hPa NE 7.7 km/h 7.7 km/h 55 % 0 mm
04:15 -11.9 °C -16.3 °C 34669.3 hPa ENE 7.7 km/h 12.9 km/h 58 % 0 mm
04:20 -11.8 °C -16.3 °C 34669.3 hPa NE 10.3 km/h 12.9 km/h 57 % 0 mm
04:25 -11.8 °C -16.3 °C 34659.1 hPa ENE 7.7 km/h 10.3 km/h 57 % 0 mm
04:30 -11.9 °C -16.2 °C 34659.1 hPa ENE 5.1 km/h 18.2 km/h 59 % 0 mm
04:35 -12.1 °C -16.3 °C 34659.1 hPa ENE 7.7 km/h 10.3 km/h 59 % 0 mm
04:40 -12.1 °C -16.3 °C 34659.1 hPa ENE 7.7 km/h 10.3 km/h 59 % 0 mm
04:45 -12.1 °C -16.3 °C 34659.1 hPa ENE 7.7 km/h 7.7 km/h 59 % 0 mm
04:55 -12.2 °C -16.3 °C 34645.6 hPa NE 7.7 km/h 10.3 km/h 60 % 0 mm
05:00 -12.3 °C -16.3 °C 34645.6 hPa NE 10.3 km/h 10.3 km/h 60 % 0 mm
05:05 -12.3 °C -16.4 °C 34645.6 hPa NE 7.7 km/h 10.3 km/h 60 % 0 mm
05:10 -12.4 °C -16.4 °C 34645.6 hPa NE 5.1 km/h 5.1 km/h 61 % 0 mm
05:15 -12.5 °C -16.3 °C 34645.6 hPa NE 5.1 km/h 10.3 km/h 62 % 0 mm
05:20 -12.6 °C -16.4 °C 34645.6 hPa NE 7.7 km/h 7.7 km/h 62 % 0 mm
05:25 -12.7 °C -16.4 °C 34635.4 hPa NE 5.1 km/h 7.7 km/h 63 % 0 mm
05:30 -12.7 °C -16.4 °C 34635.4 hPa NE 5.1 km/h 5.1 km/h 63 % 0 mm
05:35 -12.8 °C -16.4 °C 34635.4 hPa NNE 5.1 km/h 10.3 km/h 64 % 0 mm
05:40 -12.9 °C -16.3 °C 34635.4 hPa NNE 5.1 km/h 5.1 km/h 65 % 0 mm
05:45 -12.9 °C -16.4 °C 34635.4 hPa NNE 5.1 km/h 5.1 km/h 65 % 0 mm
05:50 -13 °C -16.3 °C 34635.4 hPa NE 5.1 km/h 5.1 km/h 66 % 0 mm
05:55 -13 °C -16.2 °C 34635.4 hPa NE 7.7 km/h 10.3 km/h 67 % 0 mm
06:00 -13 °C -16.3 °C 34635.4 hPa NE 7.7 km/h 7.7 km/h 66 % 0 mm
06:05 -12.9 °C -16.3 °C 34635.4 hPa NE 7.7 km/h 7.7 km/h 66 % 0 mm
06:10 -12.9 °C -16.3 °C 34625.2 hPa NE 5.1 km/h 5.1 km/h 66 % 0 mm
06:20 -13.1 °C -16.3 °C 34625.2 hPa NE 7.7 km/h 7.7 km/h 67 % 0 mm
06:25 -13.2 °C -16.3 °C 34625.2 hPa NE 5.1 km/h 7.7 km/h 68 % 0 mm
06:30 -13.2 °C -16.3 °C 34625.2 hPa ENE 5.1 km/h 5.1 km/h 68 % 0 mm
06:35 -13.3 °C -16.4 °C 34625.2 hPa ENE 5.1 km/h 5.1 km/h 68 % 0 mm
06:40 -13.4 °C -16.3 °C 34625.2 hPa NE 5.1 km/h 5.1 km/h 69 % 0 mm
06:45 -13.4 °C -16.3 °C 34625.2 hPa NE 5.1 km/h 5.1 km/h 70 % 0 mm
06:50 -13.4 °C -16.2 °C 34611.7 hPa NE 5.1 km/h 5.1 km/h 70 % 0 mm
06:55 -13.4 °C -16.3 °C 34611.7 hPa ENE 5.1 km/h 5.1 km/h 70 % 0 mm
07:00 -13.4 °C -16.3 °C 34625.2 hPa NE 5.1 km/h 5.1 km/h 70 % 0 mm
07:15 -13.3 °C -16.1 °C 34625.2 hPa NNE 5.1 km/h 7.7 km/h 71 % 0 mm
07:20 -13.2 °C -16.1 °C 34611.7 hPa NE 5.1 km/h 7.7 km/h 70 % 0 mm
07:25 -13.1 °C -16.1 °C 34611.7 hPa NE 5.1 km/h 5.1 km/h 69 % 0 mm
07:30 -13 °C -16 °C 34611.7 hPa NE 5.1 km/h 5.1 km/h 69 % 0 mm
07:35 -12.9 °C -16 °C 34611.7 hPa NE 5.1 km/h 5.1 km/h 68 % 0 mm
07:40 -12.7 °C -15.9 °C 34625.2 hPa NE 5.1 km/h 7.7 km/h 67 % 0 mm
07:45 -12.4 °C -15.8 °C 34611.7 hPa ENE 7.7 km/h 7.7 km/h 66 % 0 mm
07:50 -12.3 °C -15.7 °C 34611.7 hPa NE 7.7 km/h 7.7 km/h 66 % 0 mm
07:55 -12.2 °C -15.8 °C 34611.7 hPa East 7.7 km/h 7.7 km/h 64 % 0 mm
08:00 -12.1 °C -15.8 °C 34611.7 hPa ENE 5.1 km/h 5.1 km/h 63 % 0 mm
08:05 -11.9 °C -15.8 °C 34611.7 hPa ENE 5.1 km/h 5.1 km/h 62 % 0 mm
08:10 -11.8 °C -15.8 °C 34611.7 hPa East 7.7 km/h 7.7 km/h 61 % 0 mm
08:15 -11.7 °C -15.8 °C 34611.7 hPa ENE 7.7 km/h 7.7 km/h 60 % 0 mm
08:20 -11.6 °C -15.9 °C 34611.7 hPa ENE 7.7 km/h 7.7 km/h 59 % 0 mm
08:25 -11.6 °C -15.9 °C 34611.7 hPa ENE 5.1 km/h 7.7 km/h 59 % 0 mm
08:30 -11.4 °C -15.7 °C 34611.7 hPa ENE 5.1 km/h 5.1 km/h 59 % 0 mm
08:35 -11.2 °C -15.7 °C 34611.7 hPa ENE 7.7 km/h 7.7 km/h 58 % 0 mm
08:40 -11 °C -15.9 °C 34611.7 hPa East 7.7 km/h 15.6 km/h 55 % 0 mm
08:45 -10.9 °C -15.8 °C 34611.7 hPa East 7.7 km/h 15.6 km/h 55 % 0 mm
08:50 -10.8 °C -15.8 °C 34611.7 hPa ENE 10.3 km/h 10.3 km/h 54 % 0 mm
08:55 -10.7 °C -15.7 °C 34611.7 hPa ESE 12.9 km/h 12.9 km/h 54 % 0 mm
09:00 -10.6 °C -15.8 °C 34611.7 hPa ENE 10.3 km/h 10.3 km/h 53 % 0 mm
09:05 -10.4 °C -15.7 °C 34611.7 hPa East 10.3 km/h 10.3 km/h 53 % 0 mm
09:10 -10.4 °C -15.7 °C 34611.7 hPa ESE 10.3 km/h 10.3 km/h 52 % 0 mm
09:15 -10.3 °C -15.8 °C 34611.7 hPa East 12.9 km/h 12.9 km/h 51 % 0 mm
09:20 -10.2 °C -15.6 °C 34611.7 hPa NNE 10.3 km/h 10.3 km/h 52 % 0 mm
09:25 -10.1 °C -15.4 °C 34611.7 hPa ENE 10.3 km/h 10.3 km/h 52 % 0 mm
09:30 -9.9 °C -15.7 °C 34611.7 hPa ENE 10.3 km/h 10.3 km/h 50 % 0 mm
09:35 -9.8 °C -15.4 °C 34611.7 hPa East 10.3 km/h 10.3 km/h 51 % 0 mm
09:40 -9.8 °C -15.3 °C 34611.7 hPa NE 12.9 km/h 12.9 km/h 51 % 0 mm
09:45 -9.7 °C -15.4 °C 34611.7 hPa East 12.9 km/h 12.9 km/h 50 % 0 mm
09:50 -9.6 °C -15.3 °C 34601.5 hPa NE 10.3 km/h 10.3 km/h 50 % 0 mm
09:55 -9.4 °C -14.9 °C 34601.5 hPa NE 10.3 km/h 10.3 km/h 51 % 0 mm
10:00 -9.3 °C -15.2 °C 34601.5 hPa NE 7.7 km/h 10.3 km/h 49 % 0 mm
10:15 -9 °C -14.9 °C 34601.5 hPa East 7.7 km/h 7.7 km/h 49 % 0 mm
10:20 -8.7 °C -14.9 °C 34601.5 hPa NE 7.7 km/h 10.3 km/h 48 % 0 mm
10:25 -8.7 °C -14.9 °C 34601.5 hPa ENE 7.7 km/h 7.7 km/h 47 % 0 mm
10:35 -8.5 °C -14.8 °C 34591.4 hPa NE 10.3 km/h 10.3 km/h 47 % 0 mm
10:40 -8.4 °C -14.9 °C 34591.4 hPa ENE 10.3 km/h 10.3 km/h 46 % 0 mm
10:45 -8.2 °C -14.8 °C 34591.4 hPa NE 10.3 km/h 10.3 km/h 45 % 0 mm
10:50 -8.1 °C -14.9 °C 34591.4 hPa ENE 10.3 km/h 10.3 km/h 44 % 0 mm
10:55 -8.1 °C -14.9 °C 34591.4 hPa NE 10.3 km/h 12.9 km/h 44 % 0 mm
11:00 -7.9 °C -14.7 °C 34591.4 hPa NE 12.9 km/h 12.9 km/h 45 % 0 mm
11:05 -7.8 °C -14.7 °C 34591.4 hPa ENE 12.9 km/h 12.9 km/h 44 % 0 mm
11:10 -7.8 °C -14.7 °C 34577.8 hPa ENE 12.9 km/h 12.9 km/h 44 % 0 mm
11:15 -7.6 °C -14.6 °C 34577.8 hPa NE 10.3 km/h 18.2 km/h 44 % 0 mm
11:20 -7.5 °C -14.6 °C 34577.8 hPa ENE 10.3 km/h 12.9 km/h 43 % 0 mm
11:25 -7.4 °C -14.7 °C 34577.8 hPa ENE 15.6 km/h 15.6 km/h 42 % 0 mm
11:30 -7.3 °C -14.7 °C 34577.8 hPa NE 12.9 km/h 15.6 km/h 42 % 0 mm
11:35 -7.1 °C -14.7 °C 34567.7 hPa ENE 12.9 km/h 15.6 km/h 41 % 0 mm
11:40 -7 °C -14.7 °C 34567.7 hPa ENE 12.9 km/h 18.2 km/h 40 % 0 mm
11:45 -6.8 °C -14.6 °C 34567.7 hPa NE 10.3 km/h 18.2 km/h 40 % 0 mm
11:55 -6.6 °C -14.6 °C 34554.1 hPa East 12.9 km/h 15.6 km/h 39 % 0 mm
12:00 -6.5 °C -14.5 °C 34554.1 hPa ENE 12.9 km/h 12.9 km/h 39 % 0 mm
12:05 -6.4 °C -14.6 °C 34554.1 hPa NE 12.9 km/h 12.9 km/h 38 % 0 mm
12:10 -6.3 °C -14.6 °C 34554.1 hPa ENE 12.9 km/h 18.2 km/h 38 % 0 mm
12:15 -6.2 °C -14.7 °C 34554.1 hPa ESE 15.6 km/h 18.2 km/h 37 % 0 mm
12:20 -6.2 °C -14.6 °C 34544 hPa ENE 15.6 km/h 15.6 km/h 37 % 0 mm
12:25 -6.1 °C -14.6 °C 34544 hPa East 15.6 km/h 15.6 km/h 37 % 0 mm
12:30 -5.9 °C -14.6 °C 34544 hPa ESE 12.9 km/h 12.9 km/h 36 % 0 mm
12:35 -5.7 °C -14.4 °C 34544 hPa NE 10.3 km/h 12.9 km/h 36 % 0 mm
12:40 -5.6 °C -14.4 °C 34544 hPa ENE 10.3 km/h 20.8 km/h 36 % 0 mm
12:45 -5.7 °C -14.4 °C 34533.8 hPa ENE 12.9 km/h 20.8 km/h 36 % 0 mm
12:50 -5.6 °C -14.3 °C 34533.8 hPa SSE 10.3 km/h 12.9 km/h 36 % 0 mm
12:55 -5.4 °C -14.7 °C 34533.8 hPa SSE 10.3 km/h 15.6 km/h 34 % 0 mm
13:00 -5.3 °C -14.8 °C 34533.8 hPa East 12.9 km/h 12.9 km/h 33 % 0 mm
13:15 -5 °C -14.8 °C 34520.3 hPa East 12.9 km/h 12.9 km/h 32 % 0 mm
13:20 -5 °C -15.3 °C 34520.3 hPa ENE 12.9 km/h 12.9 km/h 30 % 0 mm
13:25 -5.1 °C -14.9 °C 34520.3 hPa ENE 15.6 km/h 15.6 km/h 32 % 0 mm
13:30 -5 °C -15.1 °C 34510.1 hPa SE 15.6 km/h 15.6 km/h 31 % 0 mm
13:35 -4.8 °C -15.1 °C 34510.1 hPa SE 15.6 km/h 15.6 km/h 30 % 0 mm
13:40 -4.7 °C -15.1 °C 34510.1 hPa ENE 15.6 km/h 15.6 km/h 30 % 0 mm
13:45 -4.6 °C -14.9 °C 34510.1 hPa SE 10.3 km/h 10.3 km/h 30 % 0 mm
13:50 -4.6 °C -15.2 °C 34510.1 hPa ESE 10.3 km/h 10.3 km/h 29 % 0 mm
13:55 -4.6 °C -15.2 °C 34510.1 hPa ESE 12.9 km/h 12.9 km/h 29 % 0 mm
14:00 -4.6 °C -15.2 °C 34510.1 hPa NE 12.9 km/h 12.9 km/h 29 % 0 mm
14:05 -4.6 °C -15.2 °C 34496.6 hPa ENE 10.3 km/h 12.9 km/h 29 % 0 mm
14:10 -4.5 °C -15.4 °C 34496.6 hPa ENE 12.9 km/h 23.3 km/h 28 % 0 mm
14:15 -4.7 °C -15.6 °C 34496.6 hPa NE 12.9 km/h 23.3 km/h 28 % 0 mm
14:20 -4.6 °C -14.9 °C 34496.6 hPa SE 12.9 km/h 12.9 km/h 30 % 0 mm
14:25 -4.3 °C -15 °C 34496.6 hPa SSE 7.7 km/h 12.9 km/h 29 % 0 mm
14:30 -4.2 °C -15.2 °C 34486.4 hPa East 5.1 km/h 7.7 km/h 28 % 0 mm
14:35 -4.3 °C -15.2 °C 34486.4 hPa East 7.7 km/h 12.9 km/h 28 % 0 mm
14:40 -4.3 °C -15.3 °C 34486.4 hPa ENE 10.3 km/h 10.3 km/h 28 % 0 mm
14:45 -4.4 °C -15.3 °C 34486.4 hPa NE 12.9 km/h 15.6 km/h 28 % 0 mm
14:50 -4.6 °C -15.4 °C 34486.4 hPa ESE 18.2 km/h 18.2 km/h 28 % 0 mm
14:55 -4.7 °C -15.6 °C 34486.4 hPa ENE 15.6 km/h 18.2 km/h 28 % 0 mm
15:00 -4.7 °C -15.3 °C 34476.3 hPa North 7.7 km/h 18.2 km/h 29 % 0 mm
15:05 -4.6 °C -15.2 °C 34476.3 hPa NE 10.3 km/h 18.2 km/h 29 % 0 mm
15:10 -4.6 °C -15.5 °C 34462.7 hPa ENE 15.6 km/h 15.6 km/h 28 % 0 mm
15:20 -4.5 °C -15.7 °C 34462.7 hPa North 12.9 km/h 12.9 km/h 27 % 0 mm
15:25 -4.4 °C -15.1 °C 34462.7 hPa East 15.6 km/h 15.6 km/h 29 % 0 mm
15:30 -4.5 °C -15.4 °C 34452.6 hPa NNE 15.6 km/h 20.8 km/h 28 % 0 mm
15:35 -4.5 °C -15.4 °C 34452.6 hPa NE 12.9 km/h 20.8 km/h 28 % 0 mm
15:40 -4.5 °C -15.1 °C 34452.6 hPa ENE 12.9 km/h 12.9 km/h 29 % 0 mm
15:45 -4.4 °C -15.6 °C 34452.6 hPa SSE 12.9 km/h 18.2 km/h 27 % 0 mm
15:50 -4.2 °C -15.8 °C 34452.6 hPa East 15.6 km/h 18.2 km/h 26 % 0 mm
15:55 -4.2 °C -15.7 °C 34452.6 hPa East 15.6 km/h 18.2 km/h 26 % 0 mm
16:00 -4.3 °C -15.5 °C 34452.6 hPa NE 15.6 km/h 15.6 km/h 27 % 0 mm
16:15 -4.4 °C -15.6 °C 34442.4 hPa NE 15.6 km/h 15.6 km/h 27 % 0 mm
16:20 -4.3 °C -15.3 °C 34442.4 hPa ESE 12.9 km/h 15.6 km/h 28 % 0 mm
16:25 -4.3 °C -15.6 °C 34428.8 hPa ENE 12.9 km/h 25.9 km/h 27 % 0 mm
16:30 -4.4 °C -15.6 °C 34428.8 hPa ENE 12.9 km/h 25.9 km/h 27 % 0 mm
16:35 -4.3 °C -15.5 °C 34428.8 hPa ENE 12.9 km/h 12.9 km/h 27 % 0 mm
16:40 -4.3 °C -15.8 °C 34428.8 hPa ENE 12.9 km/h 12.9 km/h 26 % 0 mm
16:45 -4.3 °C -15.8 °C 34428.8 hPa East 12.9 km/h 18.2 km/h 26 % 0 mm
16:50 -4.3 °C -15.8 °C 34418.7 hPa NNE 15.6 km/h 18.2 km/h 26 % 0 mm
16:55 -4.3 °C -15.8 °C 34418.7 hPa East 12.9 km/h 15.6 km/h 26 % 0 mm
17:00 -4.3 °C -15.8 °C 34418.7 hPa ENE 12.9 km/h 25.9 km/h 26 % 0 mm
17:05 -4.3 °C -15.8 °C 34418.7 hPa NE 18.2 km/h 25.9 km/h 26 % 0 mm
17:10 -4.3 °C -15.6 °C 34418.7 hPa East 15.6 km/h 15.6 km/h 27 % 0 mm
17:15 -4.3 °C -15.9 °C 34418.7 hPa ENE 12.9 km/h 15.6 km/h 26 % 0 mm
17:20 -4.4 °C -16.2 °C 34418.7 hPa NE 10.3 km/h 10.3 km/h 25 % 0 mm
17:25 -4.4 °C -15.9 °C 34405.1 hPa ENE 10.3 km/h 18.2 km/h 26 % 0 mm
17:30 -4.3 °C -16.2 °C 34405.1 hPa ESE 10.3 km/h 10.3 km/h 25 % 0 mm
17:35 -4.2 °C -16.1 °C 34405.1 hPa East 10.3 km/h 12.9 km/h 25 % 0 mm
17:40 -4.3 °C -16.4 °C 34405.1 hPa East 10.3 km/h 10.3 km/h 24 % 0 mm
17:45 -4.3 °C -16.5 °C 34405.1 hPa ENE 7.7 km/h 10.3 km/h 24 % 0 mm
17:50 -4.4 °C -16.2 °C 34405.1 hPa NE 7.7 km/h 15.6 km/h 25 % 0 mm
17:55 -4.4 °C -15.9 °C 34395 hPa NE 12.9 km/h 18.2 km/h 26 % 0 mm
18:00 -4.4 °C -15.9 °C 34395 hPa NE 12.9 km/h 12.9 km/h 26 % 0 mm
18:05 -4.4 °C -16.3 °C 34395 hPa North 10.3 km/h 18.2 km/h 25 % 0 mm
18:10 -4.6 °C -16.3 °C 34395 hPa East 12.9 km/h 12.9 km/h 25 % 0 mm
18:15 -4.6 °C -16.1 °C 34395 hPa ENE 15.6 km/h 18.2 km/h 26 % 0 mm
18:20 -4.6 °C -16.4 °C 34395 hPa ENE 12.9 km/h 12.9 km/h 25 % 0 mm
18:25 -4.7 °C -16.2 °C 34395 hPa East 12.9 km/h 18.2 km/h 26 % 0 mm
18:30 -4.7 °C -16.2 °C 34384.8 hPa East 15.6 km/h 15.6 km/h 26 % 0 mm
18:35 -4.7 °C -16.4 °C 34384.8 hPa ENE 15.6 km/h 18.2 km/h 25 % 0 mm
18:40 -4.8 °C -16.2 °C 34384.8 hPa ENE 12.9 km/h 12.9 km/h 26 % 0 mm
18:45 -4.8 °C -16.2 °C 34384.8 hPa NE 10.3 km/h 12.9 km/h 26 % 0 mm
18:50 -4.8 °C -16.3 °C 34384.8 hPa NE 12.9 km/h 12.9 km/h 26 % 0 mm
18:55 -4.8 °C -16.3 °C 34384.8 hPa NE 12.9 km/h 12.9 km/h 26 % 0 mm
19:15 -4.9 °C -16.1 °C 34371.3 hPa ENE 10.3 km/h 10.3 km/h 27 % 0 mm
19:20 -5.1 °C -16.4 °C 34371.3 hPa ENE 10.3 km/h 10.3 km/h 26 % 0 mm
19:25 -5.1 °C -15.9 °C 34371.3 hPa East 12.9 km/h 12.9 km/h 28 % 0 mm
19:30 -5.1 °C -15.9 °C 34371.3 hPa ENE 10.3 km/h 12.9 km/h 28 % 0 mm
19:35 -5.2 °C -15.7 °C 34371.3 hPa ENE 7.7 km/h 7.7 km/h 29 % 0 mm
19:40 -5.3 °C -15.8 °C 34371.3 hPa ENE 7.7 km/h 10.3 km/h 29 % 0 mm
19:45 -5.4 °C -15.9 °C 34371.3 hPa East 7.7 km/h 7.7 km/h 29 % 0 mm
19:50 -5.5 °C -16 °C 34371.3 hPa ENE 7.7 km/h 7.7 km/h 29 % 0 mm
19:55 -5.6 °C -15.8 °C 34371.3 hPa ENE 7.7 km/h 7.7 km/h 30 % 0 mm
20:00 -5.7 °C -15.9 °C 34361.1 hPa ENE 7.7 km/h 7.7 km/h 30 % 0 mm
20:05 -5.8 °C -15.5 °C 34371.3 hPa ENE 7.7 km/h 7.7 km/h 32 % 0 mm
20:10 -6 °C -15.7 °C 34371.3 hPa ENE 7.7 km/h 7.7 km/h 32 % 0 mm
20:15 -6.2 °C -15.8 °C 34361.1 hPa ENE 7.7 km/h 7.7 km/h 32 % 0 mm
20:20 -6.3 °C -15.5 °C 34361.1 hPa ENE 7.7 km/h 7.7 km/h 34 % 0 mm
20:25 -6.5 °C -15.4 °C 34361.1 hPa ENE 7.7 km/h 7.7 km/h 35 % 0 mm
20:30 -6.7 °C -15.6 °C 34361.1 hPa NE 7.7 km/h 7.7 km/h 35 % 0 mm
20:35 -6.9 °C -15.7 °C 34361.1 hPa NE 7.7 km/h 10.3 km/h 35 % 0 mm
Veghelsweer
Gegevens verzameld door Weather Underground - 2.75 mb

Script ontwikkeld door  Jim McMurry - jmcmurry@mwt.net Aangepast voor de template door  Wim van der Kuil - Leuven-Template.eu

Apparatuur in gebruik:

Weerstation
Davis VP2

Weerprogramma
WeatherLink

Weercomputer
Sponsor

Webleverancier
My provider

Davis VP2

WeatherLink

Sponsor

My provider